カタログに戻る

STARLINK-31639

運用中通信VLEO
NORAD 59261·PAYLOAD·🇺🇸 United States

打ち上げ Mar 19, 2024 から Vandenberg Space Force Base

Loading…

次のパス (今後24時間)

TLE

最新Source: CelesTrak SupGP

元期: Sep 14, 2026, 21:39 UTC

1 59261C 24050H   26257.90256944  .00017208  00000+0  55342-3 0  2571
2 59261  53.1591  20.9216 0001126  74.8337 328.4690 15.31689563    11

AllMySatでSTARLINK-31639をリアルタイム追跡

Download on the App Store